Regional Weather Roundup
Issued by NWS Cleveland, OH

Home | Current Version | Previous Version | Text Only | Print | Product List | Glossary Off
Versions: 1 2 3 4 5 6 7 8 9 10 11 12 13 14 15 16 17 18 19 20 21 22 23 24 25 26 27 28 29 30 31 32 33 34 35 36 37 38 39 40 41 42 43 44 45 46 47 48 49 50

560
ASUS41 KCLE 172100
RWRCLE
OHIO REGIONAL WEATHER ROUNDUP
NATIONAL WEATHER SERVICE WILMINGTON, OH
500 PM EDT THU AUG 17 2017

NOTE: "FAIR" INDICATES FEW OR NO CLOUDS BELOW 12,000 FEET WITH NO
SIGNIFICANT WEATHER AND/OR OBSTRUCTIONS TO VISIBILITY.

OHZ001>008-015>018-024>027-034-035-043-044-172200-
   NORTHWEST OHIO

CITY           SKY/WX    TMP DP  RH WIND       PRES   REMARKS
DEFIANCE       FAIR      84  67  56 SW14G20   29.76F
FINDLAY        FAIR      84  72  67 SW17G25   29.78F
TOLEDO EXPRESS FAIR      82  74  76 SW13G20   29.75F
TOLEDO EXEC    FAIR      84  74  71 SW13      29.77F HX  91
LIMA           PTSUNNY   82  75  79 SW12      29.81F
$$

OHZ009>014-019>023-028>033-038-089-172200-
   NORTHEAST OHIO

CITY           SKY/WX    TMP DP  RH WIND       PRES   REMARKS
CLE-HOPKINS    LGT RAIN  83  75  77 SW7       29.82F HX  90
CLE-LAKEFRONT  LGT RAIN  83  73  72 S10       29.79S
CUY CO. ARPT   NOT AVBL
LORAIN-ELYRIA  RAIN      76  70  82 W6        29.83R
ASHTABULA      TSTM      74  71  91 SW6       29.84F FOG
AKRON-CANTON   PTSUNNY   86  72  62 S16       29.85F HX  92
WOOSTER        NOT AVBL
MANSFIELD      CLOUDY    82  72  71 S13       29.85F
YOUNGSTOWN     CLOUDY    83  70  64 S10       29.86F
$$

OHZ042-051>053-060>062-070>072-077>081-172200-
  SOUTHWEST OHIO

CITY           SKY/WX    TMP DP  RH WIND       PRES   REMARKS
CINC-COVINGTON PTSUNNY   76  75  97 S7        29.87F
CINC-LUNKEN    FAIR      75  73  93 S10       29.88S
HAMILTON       FAIR      78  76  93 SW3       29.87R
DAYTON         NOT AVBL
WRIGHT-PAT AFB NOT AVBL
DAYTON GENERAL PTSUNNY   76  73  91 S12       29.87S
WILMINGTON     LGT RAIN  72  72 100 SW12      29.89F
$$

OHZ036-037-039>041-045>050-054>059-063>069-073>076-082>088-172200-
  CENTRAL AND SOUTHEAST OHIO

CITY           SKY/WX    TMP DP  RH WIND       PRES   REMARKS
COLUMBUS       TSTM      75  75 100 NW10G40   29.85R
OSU AIRPORT    PTSUNNY   75  75 100 S6        29.86F
BOLTON FIELD   LGT RAIN  75  73  94 SW6       29.88R
RICKENBACK AFB NOT AVBL
NEWARK         FAIR      84  71  65 SW7       29.84F
MARION         FAIR      82  74  76 SW14      29.84S
LANCASTER      FAIR      85  72  65 SW7       29.86S HX  91
ZANESVILLE     FAIR      86  74  67 S9        29.86F HX  94
NEW PHILLY     FAIR      84  76  76 S7        29.86F HX  93
$$




USA.gov is the U.S. government's official web portal to all federal, state and local government web resources and services.